星链-34989 (STARLINK-34989)

导读 | 豆包AI

STARLINK-34989是美国太空探索技术公司(SpaceX)星链互联网卫星星座的一员,星链计划旨在构建全球卫星互联网,为全球提供高速低延迟网络服务。 该卫星于2025年8月18日由美国发射升空,部署在近地轨道,延续了星链星座批量部署、完善全球覆盖的节奏,推动星座网络服务能力进一步提升。

基本信息
目录编号:
65251
目录名称:
STARLINK-34989
国际标识:
2025-179S
轨道中心:
EARTH
卫星名称:
星链-34989
卫星全名:
星链-34989 (STARLINK-34989)
卫星状态:
在轨 (已飞行208 天)
发射日期:
2025-08-18 UTC
国别 :
美国 (US)
星等 :
--
轨道信息
数据来源 国际轨道数据
星历时间: 2026-03-13T21:20:46+0800
22小时前
查看轨道信息
半长轴: 6927.574km
偏心率: 0.0000411
轨道倾角: 97.604°
近地点辐角 276.001°
升交点赤经 116.833°
平近点角 84.117°
近地点: 549.152km
远地点: 549.722km
周期: 95.638分钟
每日圈数: 15.056744
详细信息
固有亮度:
5
最大亮度:
2.5
卫星平台:
Starlink V1.0
覆盖范围:
全球
运营商:
太空探索技术公司
运营商所在国:
美国
制造商(研发单位):
太空探索技术公司
制造商所在国:
美国
使用方式:
暂无
卫星简介
Starlink 计划是 SpaceX 推出的全球卫星互联网项目,通过发射低轨道卫星,为全球尤其是偏远地区提供高速、低延迟的互联网服务。自 2019 年起,Starlink 已部署数千颗卫星,旨在缩小全球数字鸿沟,推动互联网普及。该项目还为军事、航空等行业提供通信支持,带来广泛经济效益。
2D轨道图
3D轨道图
轨道高度分析图
轨道倾角分析图
轨道综合分析图
查看轨道综合分析图